contact:dominique.lefevre@mio.osupytheas.fr, maurice.libes@osupytheas.fr, didier.mallarino@osupytheas.fr
Project:EMSO http://www.emso-fr.org/EMSO-France
Depth: 2436.0 m
Title:EMSO Ligure Ouest : Data MII capteur AQUADOPP
Date,Latitude,Longitude,X_East,Y_North,Z_Up,Amplitude_X,Amplitude_Y,Amplitude_Z,Batterie,SoundSpeed,Heading,Pitch,Roll,Pressure,TIS,Speed,Direction
, degrees North, degrees East, m.s-1, m.s-1,m.s-1, 1, 1, 1, Volt, m.s-1, degree, degree, degree, dbar, degree_C, m.s-1, degree
2022-03-26T00:04:03,42.805,6.029,0.008,-0.017,-0.005,101.0,100.0,99.0,13.3,1505.2,325.5,-0.8,1.8,2470.788,13.29,0.018,154.8
2022-03-26T00:07:03,42.805,6.029,-0.037,-0.021,-0.001,99.0,99.0,99.0,13.3,1505.2,325.0,-0.7,1.8,2470.774,13.29,0.042,240.4
2022-03-26T00:10:03,42.805,6.029,-0.022,0.0,-0.002,101.0,101.0,99.0,13.3,1505.2,330.2,-0.7,1.9,2470.793,13.29,0.022,270.0
2022-03-26T00:13:03,42.805,6.029,0.011,-0.017,-0.002,99.0,100.0,100.0,13.4,1505.2,330.7,-0.7,1.8,2470.784,13.29,0.02,147.1
2022-03-26T00:16:03,42.805,6.029,-0.031,-0.012,-0.023,99.0,99.0,101.0,13.4,1505.2,329.7,-0.7,1.8,2470.761,13.29,0.033,248.8
2022-03-26T00:19:03,42.805,6.029,-0.002,-0.03,-0.008,101.0,100.0,101.0,13.3,1505.2,324.3,-0.8,1.8,2470.762,13.29,0.03,183.8
2022-03-26T00:22:03,42.805,6.029,-0.015,-0.03,-0.051,97.0,98.0,101.0,13.4,1505.2,322.3,-0.8,1.8,2470.724,13.29,0.033,206.6
2022-03-26T00:25:03,42.805,6.029,0.01,-0.033,-0.038,99.0,104.0,105.0,13.4,1505.2,324.1,-0.8,1.8,2470.76,13.29,0.034,163.1
2022-03-26T00:28:03,42.805,6.029,-0.029,-0.023,-0.011,98.0,100.0,106.0,13.4,1505.2,325.6,-0.8,1.8,2470.733,13.29,0.037,231.6
2022-03-26T00:31:03,42.805,6.029,-0.017,-0.01,-0.02,99.0,100.0,100.0,13.4,1505.2,325.8,-0.7,1.8,2470.75,13.29,0.019,239.5
2022-03-26T00:34:03,42.805,6.029,0.003,-0.029,-0.038,99.0,101.0,101.0,13.3,1505.2,325.8,-0.7,1.8,2470.771,13.29,0.029,174.1
2022-03-26T00:37:03,42.805,6.029,0.0,0.0,0.026,100.0,100.0,99.0,13.4,1505.2,326.4,-0.8,1.8,2470.754,13.29,0.0,0.0
2022-03-26T00:40:03,42.805,6.029,-0.035,-0.027,-0.037,100.0,100.0,100.0,13.4,1505.2,325.3,-0.8,1.8,2470.75,13.29,0.044,232.3
2022-03-26T00:43:03,42.805,6.029,0.02,-0.026,-0.012,101.0,101.0,101.0,13.4,1505.2,323.4,-0.8,1.8,2470.768,13.29,0.032,142.4
2022-03-26T00:46:03,42.805,6.029,0.007,-0.017,-0.015,99.0,102.0,100.0,13.4,1505.2,329.4,-0.8,1.8,2470.792,13.29,0.018,157.6
2022-03-26T00:49:03,42.805,6.029,-0.011,-0.029,0.007,100.0,100.0,100.0,13.4,1505.2,326.7,-0.8,1.8,2470.724,13.29,0.031,200.8
2022-03-26T00:52:03,42.805,6.029,-0.003,-0.023,0.007,100.0,102.0,99.0,13.3,1505.2,324.4,-0.7,1.8,2470.756,13.29,0.023,187.4
2022-03-26T00:55:03,42.805,6.029,-0.005,-0.023,-0.001,100.0,100.0,100.0,13.3,1505.2,324.8,-0.8,1.8,2470.731,13.29,0.023,192.3
2022-03-26T00:58:03,42.805,6.029,0.002,-0.027,-0.018,98.0,101.0,100.0,13.3,1505.2,327.7,-0.7,1.8,2470.75,13.29,0.027,175.8
2022-03-26T01:04:03,42.805,6.029,-0.033,-0.016,-0.019,103.0,103.0,103.0,13.4,1505.2,324.6,-0.8,1.8,2470.814,13.28,0.036,244.1
2022-03-26T01:07:03,42.805,6.029,-0.005,0.003,0.017,103.0,100.0,101.0,13.4,1505.2,328.9,-0.7,1.8,2470.8,13.28,0.005,301.0
2022-03-26T01:10:03,42.805,6.029,-0.018,-0.021,-0.04,100.0,100.0,99.0,13.4,1505.2,324.9,-0.7,1.8,2470.746,13.28,0.027,220.6
2022-03-26T01:13:03,42.805,6.029,0.027,-0.006,0.001,97.0,100.0,102.0,13.3,1505.2,325.0,-0.8,1.8,2470.792,13.28,0.027,102.5
2022-03-26T01:16:03,42.805,6.029,-0.03,-0.019,0.008,99.0,100.0,99.0,13.4,1505.2,330.6,-0.8,1.8,2470.735,13.28,0.035,237.7
2022-03-26T01:19:03,42.805,6.029,-0.004,-0.022,0.007,100.0,100.0,100.0,13.4,1505.2,323.9,-0.7,1.8,2470.763,13.29,0.022,190.3
2022-03-26T01:22:03,42.805,6.029,-0.028,0.001,0.029,100.0,99.0,100.0,13.4,1505.2,326.3,-0.7,1.8,2470.782,13.29,0.028,272.0
2022-03-26T01:25:03,42.805,6.029,-0.024,-0.024,-0.015,100.0,99.0,100.0,13.4,1505.2,331.9,-0.8,1.8,2470.771,13.29,0.033,225.0
2022-03-26T01:28:03,42.805,6.029,-0.009,-0.02,0.006,100.0,100.0,100.0,13.4,1505.2,328.6,-0.8,1.8,2470.748,13.29,0.021,204.2
2022-03-26T01:31:03,42.805,6.029,0.024,-0.024,0.031,101.0,100.0,100.0,13.4,1505.2,326.1,-0.8,1.8,2470.745,13.29,0.033,135.0
2022-03-26T01:34:03,42.805,6.029,-0.021,-0.007,0.009,102.0,99.0,100.0,13.4,1505.2,325.9,-0.8,1.8,2470.759,13.29,0.022,251.6
2022-03-26T01:37:03,42.805,6.029,-0.016,-0.015,-0.033,101.0,99.0,100.0,13.4,1505.2,324.7,-0.7,1.8,2470.758,13.29,0.021,226.9
2022-03-26T01:40:03,42.805,6.029,0.0,-0.015,0.012,102.0,100.0,99.0,13.4,1505.2,327.9,-0.8,1.8,2470.753,13.29,0.015,180.0
2022-03-26T01:43:03,42.805,6.029,-0.006,-0.009,0.006,99.0,100.0,103.0,13.4,1505.2,322.4,-0.8,1.8,2470.762,13.29,0.01,213.7
2022-03-26T01:46:03,42.805,6.029,0.002,-0.023,-0.006,99.0,102.0,100.0,13.4,1505.2,330.7,-0.7,1.8,2470.797,13.29,0.023,175.0
2022-03-26T01:49:03,42.805,6.029,0.004,-0.021,0.035,99.0,100.0,100.0,13.4,1505.2,329.9,-0.8,1.8,2470.746,13.29,0.021,169.2
2022-03-26T01:52:03,42.805,6.029,-0.003,-0.027,-0.012,100.0,100.0,100.0,13.4,1505.2,323.6,-0.7,1.8,2470.746,13.29,0.027,186.3
2022-03-26T01:55:03,42.805,6.029,0.0,-0.017,-0.001,100.0,101.0,100.0,13.4,1505.2,323.7,-0.8,1.9,2470.745,13.29,0.017,180.0
2022-03-26T01:58:03,42.805,6.029,-0.008,-0.015,-0.003,100.0,102.0,100.0,13.3,1505.2,325.8,-0.7,1.8,2470.747,13.29,0.017,208.1
2022-03-26T02:04:03,42.805,6.029,0.014,-0.025,-0.019,100.0,99.0,102.0,13.4,1505.2,329.9,-0.8,1.8,2470.796,13.28,0.028,150.7
2022-03-26T02:07:03,42.805,6.029,-0.024,-0.029,-0.005,100.0,99.0,100.0,13.4,1505.2,326.0,-0.8,1.8,2470.817,13.28,0.037,219.6
2022-03-26T02:10:03,42.805,6.029,-0.028,-0.016,-0.021,99.0,100.0,100.0,13.4,1505.2,326.5,-0.7,1.8,2470.822,13.28,0.032,240.3
2022-03-26T02:13:03,42.805,6.029,-0.003,-0.027,0.022,99.0,99.0,100.0,13.4,1505.2,323.7,-0.8,1.8,2470.78,13.28,0.027,186.3
2022-03-26T02:16:03,42.805,6.029,-0.006,-0.012,-0.024,100.0,101.0,99.0,13.4,1505.2,332.4,-0.8,1.8,2470.806,13.28,0.013,206.6
2022-03-26T02:19:03,42.805,6.029,-0.008,-0.035,-0.002,100.0,99.0,100.0,13.4,1505.2,328.5,-0.8,1.8,2470.802,13.28,0.035,192.9
2022-03-26T02:22:03,42.805,6.029,0.031,-0.007,0.038,100.0,100.0,99.0,13.4,1505.2,329.0,-0.7,1.8,2470.785,13.28,0.031,102.7
2022-03-26T02:25:03,42.805,6.029,0.009,-0.035,-0.014,100.0,100.0,99.0,13.3,1505.2,331.0,-0.8,1.8,2470.758,13.28,0.036,165.6
2022-03-26T02:28:03,42.805,6.029,-0.002,-0.014,0.003,98.0,102.0,99.0,13.4,1505.2,325.8,-0.8,1.8,2470.79,13.28,0.014,188.1
2022-03-26T02:31:03,42.805,6.029,0.014,-0.026,0.017,101.0,101.0,99.0,13.4,1505.2,331.3,-0.8,1.8,2470.793,13.28,0.029,151.7
2022-03-26T02:34:03,42.805,6.029,0.016,-0.022,-0.005,100.0,100.0,100.0,13.3,1505.2,324.7,-0.8,1.9,2470.803,13.28,0.027,144.0
2022-03-26T02:37:03,42.805,6.029,0.011,-0.044,-0.038,99.0,100.0,100.0,13.4,1505.2,327.1,-0.7,1.8,2470.803,13.28,0.045,166.0
2022-03-26T02:40:03,42.805,6.029,-0.011,-0.035,-0.006,100.0,98.0,100.0,13.4,1505.2,328.2,-0.7,1.8,2470.755,13.29,0.036,197.4
2022-03-26T02:43:03,42.805,6.029,-0.013,-0.019,0.018,100.0,100.0,100.0,13.3,1505.2,324.2,-0.7,1.9,2470.807,13.28,0.023,214.4
2022-03-26T02:46:03,42.805,6.029,0.001,-0.021,-0.027,100.0,99.0,101.0,13.4,1505.2,323.7,-0.7,1.8,2470.745,13.28,0.021,177.3
2022-03-26T02:49:03,42.805,6.029,0.017,0.005,0.039,101.0,100.0,100.0,13.4,1505.2,327.0,-0.8,1.8,2470.796,13.28,0.017,73.6
2022-03-26T02:52:03,42.805,6.029,-0.031,0.012,0.009,100.0,99.0,100.0,13.3,1505.2,325.2,-0.8,1.8,2470.775,13.28,0.033,291.2
2022-03-26T02:55:03,42.805,6.029,-0.003,-0.02,0.003,100.0,101.0,100.0,13.4,1505.2,332.7,-0.8,1.8,2470.781,13.28,0.02,188.5
2022-03-26T02:58:03,42.805,6.029,-0.016,-0.006,0.021,99.0,100.0,100.0,13.3,1505.2,325.5,-0.7,1.8,2470.814,13.28,0.017,249.4
2022-03-26T03:04:03,42.805,6.029,-0.002,0.0,0.028,99.0,101.0,100.0,13.4,1505.2,328.5,-0.8,1.8,2470.799,13.28,0.002,270.0
2022-03-26T03:07:03,42.805,6.029,-0.008,-0.007,0.003,100.0,99.0,100.0,13.4,1505.2,328.5,-0.8,1.8,2470.822,13.28,0.01,228.8
2022-03-26T03:10:03,42.805,6.029,0.004,-0.011,0.024,101.0,99.0,101.0,13.3,1505.2,330.1,-0.7,1.8,2470.83,13.28,0.011,160.0
2022-03-26T03:13:03,42.805,6.029,0.029,-0.034,0.015,99.0,100.0,101.0,13.4,1505.2,330.1,-0.7,1.8,2470.804,13.28,0.044,139.5
2022-03-26T03:16:03,42.805,6.029,0.0,-0.015,-0.01,101.0,99.0,100.0,13.3,1505.2,326.6,-0.8,1.8,2470.778,13.28,0.015,180.0
2022-03-26T03:19:03,42.805,6.029,0.023,-0.021,0.005,102.0,99.0,100.0,13.3,1505.2,326.7,-0.7,1.8,2470.789,13.28,0.031,132.4
2022-03-26T03:22:03,42.805,6.029,0.004,-0.009,-0.023,100.0,100.0,100.0,13.3,1505.2,322.9,-0.7,1.8,2470.81,13.28,0.009,156.0
2022-03-26T03:25:03,42.805,6.029,0.034,-0.02,-0.024,101.0,101.0,100.0,13.4,1505.2,326.4,-0.8,1.8,2470.808,13.28,0.039,120.5
2022-03-26T03:28:03,42.805,6.029,0.023,-0.021,0.005,101.0,99.0,100.0,13.4,1505.2,326.1,-0.7,1.8,2470.796,13.28,0.031,132.4
2022-03-26T03:31:03,42.805,6.029,0.003,-0.017,-0.013,100.0,99.0,100.0,13.4,1505.2,330.2,-0.7,1.8,2470.784,13.28,0.017,170.0
2022-03-26T03:34:03,42.805,6.029,-0.02,-0.038,-0.044,99.0,100.0,100.0,13.4,1505.2,328.5,-0.8,1.8,2470.8,13.28,0.042,207.8
2022-03-26T03:37:03,42.805,6.029,0.029,-0.023,0.017,98.0,101.0,100.0,13.4,1505.2,329.9,-0.7,1.8,2470.764,13.28,0.037,128.4
2022-03-26T03:40:03,42.805,6.029,-0.009,-0.027,-0.03,101.0,100.0,101.0,13.4,1505.2,323.9,-0.8,1.8,2470.787,13.28,0.028,198.4
2022-03-26T03:43:03,42.805,6.029,0.004,-0.011,0.032,101.0,99.0,99.0,13.3,1505.2,326.3,-0.8,1.8,2470.789,13.28,0.011,160.0
2022-03-26T03:46:03,42.805,6.029,0.013,-0.036,-0.029,100.0,101.0,100.0,13.3,1505.2,332.6,-0.8,1.8,2470.817,13.28,0.038,160.1
2022-03-26T03:49:03,42.805,6.029,0.013,-0.003,0.0,102.0,98.0,99.0,13.3,1505.2,322.4,-0.8,1.8,2470.803,13.28,0.013,103.0
2022-03-26T03:52:03,42.805,6.029,0.01,-0.016,0.027,100.0,101.0,101.0,13.4,1505.2,326.4,-0.8,1.8,2470.805,13.28,0.018,148.0
2022-03-26T03:55:03,42.805,6.029,-0.002,-0.023,-0.023,100.0,103.0,100.0,13.3,1505.2,325.8,-0.8,1.8,2470.815,13.28,0.023,185.0
2022-03-26T03:58:03,42.805,6.029,-0.003,-0.023,0.002,99.0,100.0,100.0,13.4,1505.2,326.0,-0.7,1.8,2470.8,13.28,0.023,187.4
2022-03-26T04:04:03,42.805,6.029,0.023,-0.022,0.004,100.0,101.0,100.0,13.3,1505.2,330.4,-0.8,1.8,2470.828,13.28,0.031,133.7
2022-03-26T04:07:03,42.805,6.029,0.023,-0.018,0.008,99.0,101.0,101.0,13.4,1505.2,326.0,-0.8,1.8,2470.834,13.28,0.029,128.0
2022-03-26T04:10:03,42.805,6.029,0.008,-0.036,-0.023,100.0,103.0,100.0,13.4,1505.2,328.3,-0.8,1.8,2470.777,13.28,0.036,167.5
2022-03-26T04:13:03,42.805,6.029,0.0,-0.024,-0.011,101.0,101.0,99.0,13.4,1505.2,323.8,-0.8,1.9,2470.829,13.28,0.024,180.0
2022-03-26T04:16:03,42.805,6.029,0.014,-0.017,0.048,101.0,101.0,101.0,13.4,1505.2,326.2,-0.7,1.8,2470.806,13.28,0.022,140.5
2022-03-26T04:19:03,42.805,6.029,0.027,-0.02,0.004,101.0,101.0,100.0,13.4,1505.2,326.7,-0.8,1.8,2470.811,13.28,0.033,126.5
2022-03-26T04:22:03,42.805,6.029,0.037,-0.026,-0.008,100.0,101.0,101.0,13.4,1505.2,322.0,-0.7,1.8,2470.78,13.28,0.045,125.1
2022-03-26T04:25:03,42.805,6.029,0.003,-0.023,-0.027,99.0,100.0,101.0,13.4,1505.2,328.1,-0.8,1.8,2470.823,13.28,0.023,172.6
2022-03-26T04:28:03,42.805,6.029,-0.017,-0.025,-0.014,100.0,101.0,100.0,13.4,1505.2,325.8,-0.8,1.8,2470.812,13.28,0.03,214.2
2022-03-26T04:31:03,42.805,6.029,0.016,-0.013,0.01,100.0,100.0,100.0,13.3,1505.2,327.0,-0.8,1.8,2470.766,13.28,0.02,129.1
2022-03-26T04:34:03,42.805,6.029,-0.007,-0.008,0.026,100.0,100.0,100.0,13.4,1505.2,325.9,-0.8,1.8,2470.792,13.28,0.01,221.2
2022-03-26T04:37:03,42.805,6.029,0.018,-0.024,0.011,100.0,102.0,99.0,13.4,1505.2,330.3,-0.8,1.8,2470.806,13.28,0.03,143.1
2022-03-26T04:40:03,42.805,6.029,0.026,-0.033,0.011,100.0,101.0,100.0,13.3,1505.2,323.0,-0.8,1.8,2470.778,13.28,0.042,141.8
2022-03-26T04:43:03,42.805,6.029,0.035,-0.037,-0.014,100.0,100.0,100.0,13.4,1505.2,329.6,-0.8,1.8,2470.777,13.28,0.05,136.6
2022-03-26T04:46:03,42.805,6.029,0.03,-0.038,-0.024,100.0,101.0,100.0,13.4,1505.2,327.8,-0.7,1.8,2470.798,13.28,0.048,141.7
2022-03-26T04:49:03,42.805,6.029,0.02,-0.003,0.001,100.0,100.0,100.0,13.4,1505.2,332.6,-0.7,1.8,2470.804,13.28,0.02,98.5
2022-03-26T04:52:03,42.805,6.029,0.028,-0.041,-0.021,102.0,99.0,100.0,13.4,1505.2,323.0,-0.7,1.8,2470.785,13.28,0.049,145.7
2022-03-26T04:55:03,42.805,6.029,0.031,-0.037,-0.031,99.0,101.0,101.0,13.4,1505.2,325.4,-0.8,1.8,2470.768,13.28,0.048,140.0
2022-03-26T04:58:03,42.805,6.029,0.013,-0.022,-0.021,100.0,101.0,100.0,13.4,1505.2,325.8,-0.7,1.8,2470.765,13.28,0.025,149.4
2022-03-26T05:04:03,42.805,6.029,0.023,-0.016,-0.012,100.0,102.0,99.0,13.3,1505.2,324.5,-0.8,1.8,2470.802,13.28,0.028,124.8
2022-03-26T05:07:03,42.805,6.029,0.019,-0.029,-0.029,100.0,100.0,100.0,13.4,1505.2,323.6,-0.8,1.8,2470.807,13.28,0.034,146.8
2022-03-26T05:10:03,42.805,6.029,0.017,-0.003,0.001,100.0,99.0,101.0,13.4,1505.2,328.1,-0.8,1.8,2470.823,13.28,0.017,100.0
2022-03-26T05:13:03,42.805,6.029,-0.007,-0.018,0.003,100.0,100.0,102.0,13.4,1505.2,331.3,-0.8,1.8,2470.813,13.28,0.019,201.2
2022-03-26T05:16:03,42.805,6.029,0.028,-0.023,0.0,99.0,102.0,101.0,13.3,1505.2,323.3,-0.7,1.8,2470.78,13.28,0.036,129.4
2022-03-26T05:19:03,42.805,6.029,0.023,-0.019,0.008,100.0,99.0,100.0,13.4,1505.2,325.8,-0.7,1.8,2470.794,13.28,0.029,129.6
2022-03-26T05:22:03,42.805,6.029,0.01,-0.009,-0.006,101.0,100.0,99.0,13.3,1505.2,329.9,-0.8,1.8,2470.784,13.28,0.013,132.0
2022-03-26T05:25:03,42.805,6.029,0.015,-0.019,-0.011,99.0,100.0,100.0,13.4,1505.2,329.9,-0.8,1.8,2470.768,13.28,0.024,141.7
2022-03-26T05:28:03,42.805,6.029,0.013,-0.034,-0.002,102.0,100.0,100.0,13.4,1505.2,329.2,-0.7,1.8,2470.744,13.28,0.036,159.1
2022-03-26T05:31:03,42.805,6.029,0.031,-0.026,-0.002,99.0,101.0,99.0,13.3,1505.2,327.6,-0.8,1.8,2470.775,13.28,0.04,130.0
2022-03-26T05:34:03,42.805,6.029,0.023,-0.021,-0.003,100.0,101.0,101.0,13.4,1505.2,325.8,-0.8,1.8,2470.749,13.28,0.031,132.4
2022-03-26T05:37:03,42.805,6.029,0.006,-0.011,-0.005,99.0,102.0,101.0,13.3,1505.2,328.6,-0.7,1.8,2470.816,13.28,0.012,151.4
2022-03-26T05:40:03,42.805,6.029,0.039,-0.031,0.015,99.0,102.0,100.0,13.4,1505.2,324.4,-0.7,1.8,2470.783,13.28,0.049,128.5
2022-03-26T05:43:03,42.805,6.029,0.034,-0.013,0.0,99.0,102.0,101.0,13.4,1505.2,323.6,-0.7,1.8,2470.776,13.28,0.036,110.9
2022-03-26T05:46:03,42.805,6.029,0.025,-0.022,0.01,100.0,103.0,99.0,13.4,1505.2,332.2,-0.7,1.8,2470.761,13.28,0.033,131.3
2022-03-26T05:49:03,42.805,6.029,0.029,-0.019,-0.034,100.0,102.0,99.0,13.4,1505.2,329.0,-0.8,1.8,2470.79,13.28,0.034,123.2
2022-03-26T05:52:03,42.805,6.029,0.037,0.0,0.032,100.0,101.0,100.0,13.4,1505.2,331.9,-0.8,1.8,2470.754,13.28,0.037,90.0
2022-03-26T05:55:03,42.805,6.029,0.007,-0.021,-0.002,101.0,101.0,99.0,13.3,1505.2,332.4,-0.7,1.8,2470.766,13.28,0.022,161.6
2022-03-26T05:58:03,42.805,6.029,0.027,-0.035,-0.03,101.0,100.0,100.0,13.3,1505.2,327.3,-0.8,1.8,2470.781,13.28,0.044,142.3
2022-03-26T06:04:03,42.805,6.029,0.005,-0.005,-0.014,100.0,101.0,100.0,13.4,1505.2,323.6,-0.8,1.8,2470.782,13.28,0.007,135.0
2022-03-26T06:07:03,42.805,6.029,0.017,-0.037,-0.037,101.0,102.0,101.0,13.4,1505.2,327.5,-0.7,1.8,2470.765,13.28,0.04,155.3
2022-03-26T06:10:03,42.805,6.029,0.021,-0.022,0.021,99.0,102.0,100.0,13.3,1505.2,328.4,-0.7,1.9,2470.789,13.28,0.03,136.3
2022-03-26T06:13:03,42.805,6.029,0.026,-0.045,-0.024,101.0,100.0,100.0,13.3,1505.2,327.6,-0.8,1.8,2470.737,13.28,0.051,150.0
2022-03-26T06:16:03,42.805,6.029,0.023,-0.011,0.03,101.0,100.0,101.0,13.3,1505.2,325.3,-0.7,1.8,2470.759,13.28,0.025,115.6
2022-03-26T06:19:03,42.805,6.029,0.023,-0.023,-0.006,100.0,101.0,100.0,13.4,1505.2,325.8,-0.8,1.8,2470.798,13.28,0.032,135.0
2022-03-26T06:22:03,42.805,6.029,0.029,-0.015,-0.004,100.0,101.0,101.0,13.4,1505.2,328.3,-0.8,1.8,2470.759,13.28,0.032,117.4
2022-03-26T06:25:03,42.805,6.029,0.012,-0.008,0.012,102.0,102.0,100.0,13.3,1505.2,325.9,-0.7,1.8,2470.749,13.28,0.014,123.7
2022-03-26T06:28:03,42.805,6.029,0.01,-0.021,-0.011,99.0,102.0,101.0,13.3,1505.2,327.8,-0.8,1.8,2470.766,13.28,0.023,154.5
2022-03-26T06:31:03,42.805,6.029,0.006,-0.026,0.0,100.0,101.0,101.0,13.4,1505.2,327.0,-0.7,1.8,2470.731,13.28,0.026,167.0
2022-03-26T06:34:03,42.805,6.029,0.023,-0.026,-0.02,101.0,100.0,100.0,13.3,1505.2,328.0,-0.8,1.8,2470.751,13.28,0.034,138.5
2022-03-26T06:37:03,42.805,6.029,0.035,-0.015,0.032,99.0,102.0,100.0,13.4,1505.2,330.2,-0.7,1.8,2470.759,13.28,0.038,113.2
2022-03-26T06:40:03,42.805,6.029,0.024,-0.044,-0.011,100.0,101.0,100.0,13.4,1505.2,331.9,-0.8,1.8,2470.753,13.28,0.05,151.4
2022-03-26T06:43:03,42.805,6.029,0.037,-0.019,0.022,100.0,101.0,100.0,13.4,1505.2,328.2,-0.7,1.8,2470.75,13.28,0.041,117.2
2022-03-26T06:46:03,42.805,6.029,0.045,-0.042,-0.021,101.0,102.0,99.0,13.4,1505.2,325.1,-0.8,1.8,2470.755,13.28,0.061,133.0
2022-03-26T06:49:03,42.805,6.029,0.011,-0.022,0.003,100.0,100.0,101.0,13.3,1505.2,323.4,-0.8,1.8,2470.76,13.28,0.024,153.4
2022-03-26T06:52:03,42.805,6.029,0.024,-0.015,0.009,100.0,102.0,101.0,13.4,1505.2,323.1,-0.8,1.8,2470.727,13.28,0.028,122.0
2022-03-26T06:55:03,42.805,6.029,0.011,-0.039,-0.034,100.0,103.0,100.0,13.4,1505.2,326.6,-0.8,1.8,2470.7,13.28,0.04,164.3
2022-03-26T06:58:03,42.805,6.029,0.026,-0.016,0.005,101.0,101.0,100.0,13.3,1505.2,326.6,-0.8,1.9,2470.722,13.28,0.03,121.6
2022-03-26T07:01:03,42.805,6.029,0.024,-0.03,0.004,100.0,100.0,100.0,13.4,1505.2,326.7,-0.8,1.8,2470.74,13.28,0.038,141.3
2022-03-26T07:04:03,42.805,6.029,-0.003,-0.03,-0.024,101.0,100.0,100.0,13.4,1505.2,325.6,-0.7,1.8,2470.744,13.28,0.03,185.7
2022-03-26T07:07:03,42.805,6.029,0.022,-0.027,-0.012,101.0,101.0,99.0,13.3,1505.2,327.9,-0.8,1.8,2470.718,13.28,0.034,140.8
2022-03-26T07:10:03,42.805,6.029,0.028,-0.017,0.003,100.0,101.0,100.0,13.3,1505.2,322.9,-0.8,1.8,2470.73,13.28,0.032,121.3
2022-03-26T07:13:03,42.805,6.029,0.001,-0.033,-0.045,101.0,101.0,100.0,13.3,1505.2,328.8,-0.7,1.8,2470.697,13.28,0.033,178.3
2022-03-26T07:16:03,42.805,6.029,0.042,-0.004,0.01,100.0,100.0,101.0,13.4,1505.2,330.2,-0.7,1.8,2470.741,13.28,0.042,95.4
2022-03-26T07:19:03,42.805,6.029,0.029,-0.008,0.007,102.0,101.0,100.0,13.4,1505.2,324.4,-0.8,1.8,2470.7,13.28,0.03,105.4
2022-03-26T07:22:03,42.805,6.029,0.03,-0.028,-0.016,101.0,100.0,100.0,13.4,1505.2,329.6,-0.7,1.8,2470.719,13.28,0.041,133.0
2022-03-26T07:25:03,42.805,6.029,0.043,-0.038,0.018,100.0,100.0,100.0,13.4,1505.2,324.1,-0.8,1.8,2470.693,13.28,0.057,131.5
2022-03-26T07:28:03,42.805,6.029,0.021,-0.029,0.012,100.0,101.0,100.0,13.4,1505.2,330.2,-0.8,1.8,2470.706,13.28,0.035,144.1
2022-03-26T07:31:03,42.805,6.029,0.023,-0.004,0.034,100.0,101.0,100.0,13.4,1505.2,330.6,-0.8,1.8,2470.737,13.28,0.023,99.9
2022-03-26T07:34:03,42.805,6.029,0.025,-0.039,-0.005,100.0,102.0,100.0,13.4,1505.2,329.0,-0.7,1.9,2470.703,13.28,0.046,147.3
2022-03-26T07:37:03,42.805,6.029,0.048,-0.036,-0.009,98.0,103.0,100.0,13.4,1505.2,324.2,-0.8,1.8,2470.731,13.28,0.06,126.9
2022-03-26T07:40:03,42.805,6.029,0.032,-0.028,0.0,101.0,100.0,100.0,13.3,1505.2,329.8,-0.7,1.8,2470.724,13.28,0.042,131.2
2022-03-26T07:43:03,42.805,6.029,0.025,-0.021,0.0,101.0,101.0,100.0,13.4,1505.2,327.7,-0.7,1.8,2470.729,13.28,0.032,130.0
2022-03-26T07:46:03,42.805,6.029,0.004,-0.022,-0.022,100.0,100.0,100.0,13.3,1505.2,323.5,-0.7,1.8,2470.734,13.28,0.022,169.7
2022-03-26T07:49:03,42.805,6.029,0.028,-0.027,0.012,100.0,103.0,99.0,13.4,1505.2,327.9,-0.8,1.8,2470.741,13.28,0.038,134.0
2022-03-26T07:52:03,42.805,6.029,0.032,-0.022,0.009,99.0,101.0,101.0,13.3,1505.2,329.2,-0.8,1.8,2470.717,13.28,0.038,124.5
2022-03-26T07:55:03,42.805,6.029,0.006,-0.035,-0.032,100.0,100.0,101.0,13.3,1505.2,329.9,-0.8,1.8,2470.7,13.28,0.035,170.3
2022-03-26T07:58:03,42.805,6.029,0.003,-0.024,-0.015,101.0,100.0,99.0,13.4,1505.2,328.1,-0.8,1.8,2470.705,13.28,0.024,172.9
2022-03-26T08:04:03,42.805,6.029,0.017,-0.046,-0.016,100.0,102.0,100.0,13.4,1505.2,323.8,-0.8,1.8,2470.747,13.28,0.049,159.7
2022-03-26T08:07:03,42.805,6.029,0.037,-0.032,-0.009,102.0,100.0,100.0,13.4,1505.2,332.6,-0.7,1.8,2470.717,13.28,0.048,130.9
2022-03-26T08:10:03,42.805,6.029,0.001,-0.012,0.001,102.0,102.0,99.0,13.3,1505.2,329.8,-0.8,1.8,2470.745,13.28,0.012,175.2
2022-03-26T08:13:03,42.805,6.029,0.005,-0.01,0.013,100.0,102.0,100.0,13.4,1505.2,331.0,-0.7,1.8,2470.766,13.28,0.011,153.4
2022-03-26T08:16:03,42.805,6.029,0.03,-0.014,0.026,101.0,101.0,100.0,13.4,1505.2,332.5,-0.8,1.8,2470.724,13.28,0.033,115.0
2022-03-26T08:19:03,42.805,6.029,0.016,-0.024,0.012,101.0,101.0,100.0,13.4,1505.2,329.0,-0.8,1.8,2470.722,13.28,0.028,146.3
2022-03-26T08:22:03,42.805,6.029,0.047,-0.02,-0.009,101.0,101.0,100.0,13.4,1505.2,330.6,-0.8,1.8,2470.752,13.28,0.051,113.0
2022-03-26T08:25:03,42.805,6.029,0.007,-0.022,0.007,101.0,100.0,100.0,13.4,1505.2,331.0,-0.8,1.8,2470.705,13.28,0.023,162.4
2022-03-26T08:28:03,42.805,6.029,0.028,-0.037,-0.007,101.0,102.0,100.0,13.3,1505.2,326.4,-0.8,1.8,2470.743,13.28,0.046,142.9
2022-03-26T08:31:03,42.805,6.029,0.029,-0.019,0.013,100.0,101.0,100.0,13.4,1505.2,325.2,-0.8,1.8,2470.691,13.28,0.034,123.2
2022-03-26T08:34:03,42.805,6.029,0.015,-0.023,0.012,101.0,101.0,99.0,13.4,1505.2,324.7,-0.8,1.8,2470.685,13.28,0.027,146.9
2022-03-26T08:37:03,42.805,6.029,0.033,-0.014,0.0,100.0,101.0,101.0,13.3,1505.2,324.7,-0.8,1.8,2470.715,13.28,0.035,113.0
2022-03-26T08:40:03,42.805,6.029,0.028,-0.031,-0.021,101.0,101.0,101.0,13.4,1505.2,326.3,-0.7,1.8,2470.717,13.28,0.041,137.9
2022-03-26T08:43:03,42.805,6.029,0.008,-0.024,-0.015,100.0,102.0,100.0,13.4,1505.2,329.4,-0.8,1.8,2470.704,13.28,0.025,161.6
2022-03-26T08:46:03,42.805,6.029,0.007,-0.01,-0.005,101.0,100.0,100.0,13.4,1505.2,323.0,-0.8,1.8,2470.728,13.28,0.012,145.0
2022-03-26T08:49:03,42.805,6.029,0.008,-0.023,-0.009,101.0,100.0,100.0,13.3,1505.2,326.5,-0.8,1.8,2470.69,13.28,0.024,160.8
2022-03-26T08:52:03,42.805,6.029,0.004,-0.023,-0.034,101.0,101.0,101.0,13.4,1505.2,328.9,-0.8,1.8,2470.701,13.28,0.023,170.1
2022-03-26T08:55:03,42.805,6.029,0.022,-0.029,-0.004,101.0,101.0,100.0,13.4,1505.2,333.0,-0.8,1.9,2470.753,13.28,0.036,142.8
2022-03-26T08:58:03,42.805,6.029,0.033,-0.02,-0.014,100.0,102.0,100.0,13.3,1505.2,328.5,-0.8,1.8,2470.703,13.28,0.038,121.2
2022-03-26T09:04:03,42.805,6.029,0.013,-0.035,0.007,100.0,101.0,100.0,13.4,1505.2,332.4,-0.8,1.8,2470.755,13.28,0.037,159.6
2022-03-26T09:07:03,42.805,6.029,0.02,-0.007,0.013,101.0,101.0,100.0,13.4,1505.2,329.9,-0.8,1.8,2470.744,13.28,0.021,109.3
2022-03-26T09:10:03,42.805,6.029,0.033,-0.025,-0.007,101.0,100.0,100.0,13.4,1505.2,323.4,-0.7,1.8,2470.746,13.28,0.041,127.1
2022-03-26T09:13:03,42.805,6.029,0.021,-0.027,-0.012,100.0,100.0,101.0,13.4,1505.2,326.6,-0.7,1.8,2470.725,13.28,0.034,142.1
2022-03-26T09:16:03,42.805,6.029,0.011,-0.03,0.008,101.0,99.0,100.0,13.3,1505.2,325.5,-0.7,1.8,2470.724,13.28,0.031,159.9
2022-03-26T09:19:03,42.805,6.029,0.021,-0.017,0.0,102.0,102.0,100.0,13.4,1505.2,331.4,-0.7,1.8,2470.76,13.28,0.027,129.0
2022-03-26T09:22:03,42.805,6.029,0.021,-0.015,-0.039,100.0,100.0,100.0,13.4,1505.2,324.8,-0.7,1.8,2470.726,13.28,0.025,125.5
2022-03-26T09:25:03,42.805,6.029,0.005,-0.039,-0.042,101.0,101.0,100.0,13.3,1505.2,322.9,-0.8,1.8,2470.694,13.28,0.039,172.7
2022-03-26T09:28:03,42.805,6.029,0.013,-0.017,0.015,101.0,101.0,101.0,13.3,1505.2,332.2,-0.8,1.9,2470.69,13.28,0.021,142.6
2022-03-26T09:31:03,42.805,6.029,0.023,-0.024,0.0,100.0,101.0,101.0,13.4,1505.2,326.0,-0.8,1.8,2470.736,13.28,0.033,136.2
2022-03-26T09:34:03,42.805,6.029,0.014,-0.018,-0.014,101.0,101.0,100.0,13.4,1505.2,322.9,-0.7,1.8,2470.745,13.28,0.022,142.1
2022-03-26T09:37:03,42.805,6.029,0.012,-0.023,0.011,100.0,103.0,101.0,13.4,1505.2,332.9,-0.8,1.8,2470.755,13.28,0.025,152.4
2022-03-26T09:40:03,42.805,6.029,-0.008,-0.019,-0.005,100.0,101.0,100.0,13.4,1505.2,327.3,-0.8,1.8,2470.703,13.28,0.02,202.8
2022-03-26T09:43:03,42.805,6.029,0.0,-0.027,0.0,101.0,102.0,100.0,13.3,1505.2,331.3,-0.8,1.8,2470.719,13.28,0.026,180.0
2022-03-26T09:46:03,42.805,6.029,0.028,-0.029,0.023,102.0,101.0,100.0,13.4,1505.2,329.1,-0.8,1.8,2470.726,13.28,0.04,136.0
2022-03-26T09:49:03,42.805,6.029,0.024,-0.021,0.022,101.0,101.0,100.0,13.3,1505.2,323.3,-0.7,1.8,2470.732,13.28,0.031,131.2
2022-03-26T09:52:03,42.805,6.029,0.021,-0.05,-0.017,100.0,100.0,100.0,13.4,1505.2,331.1,-0.7,1.8,2470.704,13.28,0.054,157.2
2022-03-26T09:55:03,42.805,6.029,0.017,-0.025,0.01,101.0,101.0,100.0,13.4,1505.2,329.8,-0.7,1.8,2470.714,13.28,0.03,145.8